Regional Weather Roundup
Issued by NWS

Home | Current Version | Previous Version | Text Only | Print | Product List | Glossary On
Versions: 1 2 3 4 5 6 7 8 9 10 11 12 13 14 15 16 17 18 19 20 21 22 23 24 25 26 27 28 29 30 31 32 33 34 35 36 37 38 39 40 41 42 43 44 45 46 47 48 49 50
000
ASUS45 KTFX 272210
RWRMT
MONTANA REGIONAL WEATHER ROUNDUP
NATIONAL WEATHER SERVICE GREAT FALLS MT
400 PM MDT FRI MAY 27 2016

NOTE: "FAIR" INDICATES FEW OR NO CLOUDS BELOW 12000 FEET WITH NO
SIGNIFICANT WEATHER AND/OR OBSTRUCTIONS TO VISIBILITY.

MTZ001>007-043-272300-
WEST OF THE DIVIDE

CITY           SKY/WX    TMP DP  RH WIND       PRES   REMARKS
KALISPELL      PTSUNNY   59  40  49 S5        29.91F
MISSOULA       CLOUDY    60  36  40 W5        29.94F
BUTTE          CLOUDY    47  39  74 N8        29.95S
MULLAN PASS    CLOUDY    41  29  62 MISG      30.00S
ANACONDA         N/A     46  43  87 NE7       29.95S
DEER LODGE       N/A     48  41  76 NW12      29.95F
EUREKA           N/A     63  30  29 S9        29.90F
HAMILTON         N/A     57  34  41 N7        29.93S
LIBBY            N/A     57  36  44 S5        29.97R
$$

MTZ008-052>055-272300-
SOUTHWEST MONTANA

CITY           SKY/WX    TMP DP  RH WIND       PRES   REMARKS
BOZEMAN        MOSUNNY   59  46  62 NW15      29.88S
DILLON         LGT RAIN  51  41  68 E16       29.88F
W YELLOWSTONE  CLOUDY    50  37  62 SW8       29.94F
ENNIS          CLOUDY    46  43  87 W12G17    29.99R FOG
$$

MTZ009-010-012-014-046-048-049-054-272300-
EAST SLOPES AND CENTRAL MONTANA

CITY           SKY/WX    TMP DP  RH WIND       PRES   REMARKS
CUT BANK       CLOUDY    57  35  43 W17G26    29.86S
GREAT FALLS    CLOUDY    64  36  35 SW10      29.82S
MALMSTROM AFB  MOSUNNY   66  35  31 W14       29.82F
HELENA         CLOUDY    52  45  77 S13G21    29.89R
CHOTEAU          N/A     59  36  41 W16       29.86S
$$

MTZ011-013-016-021-045-047-050-051-272300-
NORTH CENTRAL MONTANA

CITY           SKY/WX    TMP DP  RH WIND       PRES   REMARKS
HAVRE          PTSUNNY   66  50  56 SE10      29.79F
LEWISTOWN      MOSUNNY   61  46  57 E15       29.86F
N BAR RANCH    PTSUNNY   59  45  58 NE10      29.90S
CHINOOK          N/A     66  48  52 E9        29.80S
$$

MTZ017>020-022>027-061-062-272300-
NORTHEAST MONTANA

CITY           SKY/WX    TMP DP  RH WIND       PRES   REMARKS
GLASGOW        PTSUNNY   70  49  47 E10       29.82F
JORDAN           N/A     66  46  48 E9        29.82F
SIDNEY         CLOUDY    67  48  50 E6        29.82F
WOLF POINT     MOSUNNY   71  48  43 E6        29.81F
PLENTYWOOD       N/A     64  50  59 NE20      29.84S
POPLAR           N/A     64  48  55 E10       29.83S
$$

MTZ028>42-056>058-272300-
SOUTHCENTRAL AND SOUTHEAST MONTANA

CITY           SKY/WX    TMP DP  RH WIND       PRES   REMARKS
BAKER          CLOUDY    67  45  45 VRB5      29.83F
BILLINGS       CLOUDY    66  43  43 N22G31    29.82R
LIVINGSTON     LGT RAIN  55  46  71 S8        29.86S
MILES CITY     MOSUNNY   67  47  48 NE7       29.81F
FORSYTH          N/A     66  48  52 E5        29.81F
$$

REGIONAL REPORTS...DAKOTAS

CITY           SKY/WX    TMP DP  RH WIND       PRES   REMARKS
WILLISTON      CLOUDY    67  50  54 E5        29.83S
MINOT          CLOUDY    68  52  56 E5        29.81R
DICKINSON      CLOUDY    69  42  37 VRB3      29.80F
BEACH          PTSUNNY   68  45  42 E8G16     29.85S
CROSBY           N/A     63  57  82 E12       29.87F
WATFORD CITY   PTSUNNY   64  50  59 NE10      29.83S
BISMARCK       PTSUNNY   72  46  39 CALM      29.80F
GRAND FORKS    PTSUNNY   74  54  49 N8        29.76S
FARGO          LGT RAIN  61  58  90 NW9       29.76S
BUFFALO SD       N/A     68  45  43 VRB5      29.76F
RAPID CITY     CLOUDY    60  49  66 S14       29.85R
$$

REGIONAL REPORTS...WYOMING/IDAHO/WASHINGTON

CITY           SKY/WX    TMP DP  RH WIND       PRES   REMARKS
GILLETTE       PTSUNNY   64  42  44 E6        29.86R
SHERIDAN       CLOUDY    65  48  54 W12       29.83F
BUFFALO WY     LGT RAIN  53  47  79 SW10      29.89F
CODY           CLOUDY    63  43  48 SE13G20   29.83S
YELLOWSTONE LA   N/A     48  36  63 E6        30.00F
IDAHO FALLS    PTSUNNY   66  37  34 SW18G31   29.88F
SALMON         CLOUDY    55  43  62 N8        29.89R
BOISE          SUNNY     67  29  24 N16G25    29.94F
SPOKANE        PTSUNNY   60  25  26 SW21G26   29.98F
$$

REGIONAL REPORTS...ALBERTA

CITY           SKY/WX    TMP DP  RH WIND       PRES   REMARKS
CALGARY        PTSUNNY   54  45  71 N13       29.78F
LETHBRIDGE     PTSUNNY   64  36  34 W18G26    29.80S
MEDICINE HAT   LGT RAIN  57  52  82 E15G22    29.79F
WATERTON GATE    N/A     50  37  62 SW13        N/A
MILK RIVER       N/A     63  36  36 W16G22      N/A
$$

REGIONAL REPORTS...SASKATCHEWAN

CITY           SKY/WX    TMP DP  RH WIND       PRES   REMARKS
SWIFT CURRENT  SUNNY     68  46  45 SE16      29.83F
REGINA         PTSUNNY   72  48  43 E20G26    29.86S
SASKATOON      PTSUNNY   68  50  52 E15G25    29.87S
CYPRESS HILLS    N/A     59  41  51 SE13G18     N/A
VAL MARIE        N/A     68  46  45 SE12        N/A
ROCKGLEN         N/A     64  52  63 E6          N/A
$$



USA.gov is the U.S. government's official web portal to all federal, state and local government web resources and services.